Temp
18 18 18 19 19 19 20 20 21 22 22 24 25 25 26 26 28 28 27 33 33 32 31 30 30 31 31 28 27 25 26 27 30 30 33 35 32 33 32 30 30 31 29 28 25
17 18 18 18 19 19 20 20 21 23 23 24 25 25 26 26 27 25 34 33 32 33 32 31 31 33 29 29 29 27 27 30 31 32 35 35 34 32 31 29 29 29 29 26 25
17 17 18 18 19 19 19 20 22 22 23 23 24 25 26 26 25 31 34 34 32 33 32 32 32 31 29 29 29 28 30 33 35 35 36 35 34 34 30 28 29 27 28 27 25
16 17 17 18 18 19 19 20 22 22 23 23 24 25 26 26 31 33 34 33 33 32 32 31 31 28 28 28 26 27 32 33 35 35 36 35 35 32 32 30 30 29 28 27 26
15 17 18 18 18 19 19 21 22 22 23 23 24 25 25 26 27 34 33 33 33 32 31 32 28 28 29 29 30 30 32 35 35 36 35 36 34 33 32 31 30 30 29 27 26
14 15 18 18 18 18 19 21 22 22 23 23 23 24 24 27 34 34 33 33 33 32 32 32 29 29 28 28 29 32 33 35 36 34 36 34 34 32 31 31 30 30 28 28 27
13 15 17 18 18 19 19 21 22 23 23 23 22 23 22 27 33 33 33 34 34 33 32 33 31 30 29 32 33 33 32 34 35 34 35 34 33 31 31 30 29 29 28 29 28
12 14 16 17 18 18 21 22 22 23 23 22 22 22 22 32 33 33 33 33 34 34 34 34 33 32 32 31 33 31 30 29 31 31 35 33 31 32 31 30 29 29 29 29 28
12 13 15 16 18 19 21 22 23 23 23 23 23 22 24 31 32 35 34 33 34 35 35 35 32 32 32 30 28 29 29 30 33 32 32 33 31 33 32 30 29 29 29 29 28
11 13 15 17 18 19 22 23 24 23 23 22 22 23 25 30 34 35 35 35 34 33 33 34 30 31 28 28 28 29 30 31 31 33 32 32 31 33 33 32 31 30 29 29 29
11 13 15 17 18 18 22 23 21 22 22 23 24 24 28 32 34 34 35 35 34 33 31 31 30 28 29 31 32 32 31 32 32 32 33 32 32 33 33 32 32 31 31 30 29
11 13 16 18 18 19 19 16 23 26 22 23 25 25 28 30 29 31 34 32 31 30 31 30 28 31 31 32 34 33 32 32 32 31 30 31 32 34 34 33 33 32 31 31 30
11 13 15 19 20 20 19 21 26 25 23 25 25 25 27 29 29 29 30 30 31 30 30 29 31 34 33 33 34 34 33 34 33 34 33 34 32 32 34 35 34 33 33 31 30
11 13 15 18 20 18 19 24 25 24 20 24 27 28 30 31 31 33 33 31 31 30 30 29 33 33 34 34 33 33 34 35 35 33 31 33 29 31 32 32 32 32 32 32 31
11 13 15 15 16 16 24 24 26 25 25 31 27 32 28 29 32 33 33 32 30 31 30 30 33 32 33 33 35 33 35 34 35 33 31 30 29 30 29 30 30 30 32 32 32
11 13 14 14 14 22 22 25 26 22 24 31 31 29 29 29 31 31 32 32 31 31 31 30 32 33 33 35 36 36 35 32 29 28 28 29 29 28 28 28 28 31 33 32 32
12 15 13 14 17 22 22 21 21 22 28 31 30 29 28 28 30 30 31 30 28 28 28 29 31 31 34 33 34 32 29 27 28 27 27 27 28 28 27 28 30 31 32 32 31
13 17 19 19 21 20 21 20 23 25 26 30 31 28 29 29 29 30 29 27 28 28 25 27 28 32 34 33 33 33 30 26 29 28 28 27 29 29 28 28 28 31 32 33 31
15 17 16 22 22 19 17 19 21 23 30 29 30 29 29 30 30 28 27 26 28 28 28 27 28 31 33 34 33 34 32 31 29 27 28 25 27 27 27 31 30 31 31 33 32
14 13 16 22 21 19 17 18 22 27 27 27 30 30 28 28 28 27 27 29 30 28 28 28 28 32 32 35 33 33 31 30 25 29 29 26 25 26 28 32 29 30 31 30 31
13 13 21 22 22 16 17 17 24 27 27 27 27 28 29 31 29 26 29 30 31 30 30 27 27 31 33 32 30 30 28 24 24 24 26 25 25 25 25 25 27 29 30 28 30
10 16 20 22 17 14 16 22 22 25 26 27 28 27 29 31 31 30 29 31 31 30 28 28 25 27 29 31 33 31 29 26 26 26 23 24 26 27 26 28 29 28 28 28 29
8 13 21 23 17 16 18 22 24 24 25 27 27 29 28 30 31 30 32 33 32 32 29 28 25 27 28 28 31 32 30 27 24 23 24 24 25 25 24 25 28 28 32 30 29
8 16 17 17 16 20 21 21 22 25 25 26 27 28 28 29 28 30 31 34 34 32 30 29 25 28 29 28 32 33 33 29 28 25 25 26 27 26 26 31 33 34 31 30 31
8 13 18 18 18 20 21 20 22 23 26 27 28 27 27 29 28 30 31 30 32 30 29 31 29 27 28 30 33 34 34 33 31 28 29 27 28 28 27 27 29 31 30 31 31
10 14 14 15 18 20 18 20 22 24 24 26 26 28 28 29 29 30 30 30 31 32 31 27 29 30 32 31 33 34 32 33 33 31 31 26 27 29 28 28 29 27 29 31 30
13 14 13 15 17 20 20 22 24 25 25 27 27 27 28 29 31 30 29 27 30 30 29 29 26 26 29 30 31 29 30 30 30 29 29 27 27 29 28 28 28 27 28 28 28
Height
805 803 801 799 798 795 794 792 790 789 787 785 782 781 779 777 774 772 770 766 767 768 772 772 769 765 767 774 779 783 807 814 796 796 782 765 777 774 772 784 785 782 786 794 802
805 803 802 800 797 795 793 792 790 788 786 784 782 780 778 775 771 768 762 764 767 768 771 770 765 761 774 779 780 791 809 799 779 771 771 767 768 775 785 793 793 790 794 801 805
805 803 801 800 797 795 793 791 789 788 786 784 782 780 777 774 773 762 759 763 766 767 769 767 764 765 782 784 788 791 800 777 765 759 758 766 769 768 785 802 787 792 795 801 805
805 802 800 799 796 794 792 790 788 787 785 783 782 779 776 775 788 759 759 763 765 767 767 769 769 780 790 801 792 803 775 775 766 761 759 768 763 777 773 782 779 785 791 798 803
804 802 799 797 795 793 790 788 787 786 784 782 781 779 777 777 769 758 760 763 764 765 767 767 773 779 792 798 792 796 775 761 758 755 758 759 770 771 777 776 783 788 793 797 801
803 801 798 796 794 792 789 787 785 784 782 781 781 780 779 786 758 758 760 762 763 765 765 766 768 770 784 788 793 772 764 765 760 765 759 768 771 771 783 780 787 789 793 794 797
802 800 797 794 792 790 788 786 784 782 781 780 780 780 780 769 758 759 760 761 761 764 764 763 761 770 772 777 772 773 788 773 763 764 771 764 785 786 778 781 786 788 789 789 792
802 799 796 793 790 787 785 784 782 781 780 779 779 780 778 757 758 758 760 760 761 761 762 763 763 769 771 770 774 790 790 811 788 778 766 772 810 784 776 781 789 788 788 788 789
801 798 795 792 788 785 782 781 780 779 779 779 780 779 776 755 754 753 757 759 759 758 759 759 764 771 775 793 811 801 818 808 791 772 776 778 799 778 772 778 785 786 785 785 787
800 797 794 791 788 783 780 778 777 778 779 779 781 785 764 755 750 750 754 757 759 758 761 760 772 783 792 805 832 817 815 806 806 782 780 787 787 775 770 772 776 778 779 780 782
799 795 792 789 787 783 778 776 780 782 778 775 772 768 757 752 750 750 752 756 758 764 786 772 794 806 793 785 781 788 803 801 793 782 783 783 782 774 767 771 775 774 774 775 777
798 794 790 787 784 782 781 780 774 777 783 762 762 760 752 757 765 751 752 766 769 789 778 790 806 778 774 776 777 783 795 802 788 778 791 783 782 765 761 762 761 764 768 769 772
797 792 788 784 781 779 779 775 773 774 782 761 750 753 749 750 760 755 750 760 772 786 786 801 782 766 775 778 781 782 790 789 795 779 778 777 790 778 756 748 752 754 755 762 764
795 792 788 781 782 779 775 772 770 770 805 773 755 742 742 744 757 736 740 754 769 785 785 789 766 774 776 781 777 796 769 772 777 792 820 783 833 789 771 765 760 760 761 760 760
794 790 787 786 782 779 773 769 766 770 821 746 749 726 732 750 745 741 737 749 773 776 782 788 773 777 783 776 764 782 760 771 771 789 802 808 827 803 784 781 775 766 758 753 755
791 789 786 785 781 773 771 766 766 806 817 750 736 744 751 749 747 740 744 744 750 771 772 778 756 764 767 756 757 751 764 778 791 808 839 815 823 820 805 797 784 759 753 754 749
787 785 784 782 775 772 772 769 808 821 756 753 750 745 753 760 756 754 761 771 786 804 804 786 775 761 755 772 757 766 795 838 839 846 848 817 823 810 794 779 770 767 752 747 745
781 778 775 772 772 774 774 792 810 779 771 741 738 749 762 756 760 758 768 785 773 779 807 813 815 767 750 764 774 775 787 833 849 852 840 820 826 805 782 770 766 756 750 743 744
776 772 769 763 767 775 783 810 797 779 749 754 746 762 763 754 753 764 773 781 769 769 799 808 803 755 751 748 756 769 790 776 812 823 836 841 816 794 780 765 765 757 752 746 754
774 771 763 760 763 773 792 799 780 753 752 754 760 753 769 760 765 769 773 754 759 754 756 778 803 760 754 747 751 760 763 802 823 841 847 843 837 825 792 777 773 767 763 757 745
775 774 755 759 764 779 798 793 765 749 749 758 761 764 756 749 756 767 758 742 735 745 746 767 786 773 759 770 779 776 789 805 814 827 847 858 840 799 796 789 782 767 764 757 747
778 778 759 759 781 788 791 770 762 755 749 755 747 752 751 742 746 754 757 738 719 729 762 755 784 798 783 753 746 756 773 788 818 827 834 837 831 785 784 774 767 765 763 754 742
788 777 763 758 787 789 776 765 759 760 758 754 751 740 739 748 753 743 733 711 712 723 745 749 785 804 791 775 751 759 762 772 790 807 826 838 829 781 780 777 765 763 748 745 740
789 780 767 764 765 771 771 771 766 745 748 744 743 739 743 742 738 742 734 711 707 714 713 727 772 780 796 787 762 766 754 762 775 812 811 806 799 786 779 759 742 742 746 746 743
789 780 767 776 770 767 767 768 764 763 740 734 735 741 745 749 743 740 728 723 705 703 717 727 766 766 763 759 752 753 754 755 768 772 786 783 782 770 769 761 757 753 749 750 740
789 781 773 773 763 762 766 764 758 751 749 743 742 728 731 740 737 741 730 730 726 716 719 729 760 753 756 750 750 756 754 746 746 753 759 777 778 755 753 755 759 764 760 757 745
784 778 779 772 767 763 763 755 745 740 730 724 726 729 727 722 713 715 713 720 719 726 729 733 756 771 779 757 759 785 770 760 761 758 764 782 764 752 762 767 764 764 760 760 755
Wind_Speed
12 13 12 12 13 13 14 15 15 15 14 14 13 14 15 18 16 8 5 5 1 7 1 4 7 11 9 4 3 2 3 3 2 1 4 11 14 8 9 16 7 5 13 22 34
12 12 12 13 13 14 15 15 15 14 14 14 14 14 15 18 14 10 9 7 3 2 3 4 6 7 4 2 2 3 1 3 6 5 5 8 16 15 9 16 7 15 20 31 31
11 12 13 14 14 15 15 16 14 14 15 15 15 14 14 14 4 5 4 12 7 4 1 4 4 5 5 5 6 5 3 5 11 10 6 13 9 16 18 7 21 23 22 22 24
11 12 13 14 15 16 16 16 14 14 15 15 14 13 12 4 2 3 0 10 8 4 4 6 1 4 5 8 6 5 12 6 6 11 12 7 7 13 7 9 19 22 22 22 17
13 13 14 14 15 16 16 16 15 14 14 14 13 12 4 3 7 5 4 10 7 5 3 3 6 4 5 7 6 14 12 16 17 13 9 12 6 5 10 19 18 20 20 17 14
15 15 14 15 15 16 17 15 15 14 14 13 11 8 2 2 5 7 7 10 8 6 1 3 7 2 5 5 5 7 10 12 5 7 9 13 8 7 14 20 19 20 17 19 17
17 16 15 16 17 18 17 15 14 14 13 11 9 4 1 11 4 2 6 6 9 9 3 5 5 3 3 1 2 4 6 6 7 5 3 8 4 9 20 21 22 20 16 18 17
18 18 17 16 17 19 17 15 13 13 11 9 6 1 7 7 11 15 14 11 5 9 13 13 14 4 2 1 4 3 2 4 1 5 3 5 5 12 21 22 22 20 17 17 16
19 20 18 17 18 19 17 16 14 9 6 5 2 2 10 10 7 15 14 12 10 12 15 15 12 6 2 3 5 5 1 3 6 3 2 4 3 12 21 21 21 19 19 18 17
20 21 20 18 18 21 18 15 8 5 1 2 3 3 6 5 7 16 15 12 5 4 7 2 3 1 3 3 4 5 3 2 5 3 3 8 9 16 18 19 20 21 20 19 19
22 22 20 18 18 21 20 4 4 3 2 8 6 4 5 3 4 9 18 3 1 3 4 6 2 7 10 9 11 8 2 6 1 8 5 8 11 17 17 15 16 17 18 19 21
23 23 22 19 17 18 11 1 5 4 6 12 13 10 23 4 5 7 15 5 4 6 3 4 7 12 7 7 10 6 5 6 5 11 3 11 11 6 19 21 21 21 18 18 14
23 24 23 20 18 7 5 10 14 18 1 8 8 8 7 11 8 10 13 8 4 5 5 8 12 2 7 11 5 4 4 2 4 8 13 4 7 7 4 17 21 19 21 16 18
23 24 23 25 2 8 7 13 20 3 4 7 5 8 6 7 5 9 19 8 4 9 7 7 14 12 11 9 7 6 7 7 6 3 3 2 5 6 8 5 4 11 13 16 17
24 24 22 14 13 5 8 21 19 5 3 2 3 4 7 9 3 5 7 4 10 7 7 9 3 6 6 10 3 10 6 8 5 1 3 8 4 6 9 10 8 9 11 18 16
25 22 24 7 12 12 18 20 3 5 5 2 7 7 7 5 2 3 5 4 6 5 3 9 5 3 9 13 11 3 4 5 6 4 3 3 4 5 1 3 8 13 4 9 16
27 23 23 16 5 1 20 4 5 3 6 4 5 6 6 7 5 5 5 4 7 5 6 7 9 7 3 7 5 6 7 2 4 4 6 1 2 6 6 9 4 15 17 4 7
29 23 16 22 13 7 6 5 3 7 5 5 3 6 9 7 8 5 6 6 3 5 3 6 8 4 4 7 7 5 8 6 5 2 4 4 3 4 6 11 8 8 5 7 8
28 12 10 16 15 10 5 2 8 7 4 4 4 5 4 5 6 7 8 9 10 10 9 5 6 8 4 4 8 5 3 6 5 4 3 4 5 8 7 6 4 8 8 6 6
15 8 8 5 17 11 4 6 5 3 5 5 1 2 8 9 7 9 7 7 7 13 7 8 4 12 12 4 3 6 2 1 4 3 2 3 4 4 4 4 10 13 10 10 15
5 3 5 17 19 5 4 7 4 4 8 5 3 2 6 3 6 7 11 5 13 12 15 7 6 14 4 5 7 1 3 7 6 4 6 3 5 5 8 10 10 14 7 10 15
6 1 17 29 3 2 3 4 7 4 5 5 4 7 7 1 3 6 10 10 12 10 12 12 7 7 11 8 6 3 7 7 5 5 2 4 5 4 5 8 8 12 11 10 8
3 3 17 9 3 3 5 6 5 6 7 5 5 1 2 4 0 5 3 15 9 14 12 8 3 3 11 7 6 4 6 5 6 4 7 7 5 7 8 9 14 13 11 10 7
2 1 3 2 2 5 3 6 6 7 8 7 8 4 6 4 4 5 4 5 7 11 16 10 5 8 9 8 1 5 2 4 7 5 6 7 6 7 9 8 6 12 11 11 8
1 4 2 3 5 5 3 5 7 4 5 3 4 8 7 4 7 4 4 6 4 6 9 11 8 6 7 5 4 5 7 7 7 8 6 7 15 17 15 9 9 13 8 13 2
1 1 5 3 3 5 7 7 11 14 6 7 5 12 5 6 6 5 2 3 2 8 4 2 5 6 5 1 4 4 7 6 6 6 2 11 9 3 9 6 2 7 6 11 8
5 6 3 5 5 3 1 6 6 7 9 16 14 10 5 9 4 6 3 5 5 3 2 6 7 4 6 5 5 5 7 12 11 20 5 2 8 11 4 6 5 4 7 7 10
Wind_Direction
11 8 8 4 2 358 356 354 352 350 348 343 340 338 338 333 328 299 249 222 47 219 38 355 298 276 282 92 79 139 39 344 299 146 165 129 119 139 106 134 150 217 137 140 139
5 3 0 359 358 354 353 350 349 347 344 341 339 339 339 334 327 265 257 212 247 239 116 195 266 240 70 67 73 67 63 249 229 228 171 124 131 134 131 158 119 107 115 131 137
358 356 354 352 351 349 348 346 345 344 343 340 338 338 336 331 316 255 288 204 229 222 181 274 123 66 84 45 351 329 241 237 236 240 212 132 152 123 121 150 149 143 144 140 143
354 348 347 347 345 343 342 341 338 339 339 336 337 338 332 336 195 314 116 175 201 164 150 120 85 22 100 114 267 329 257 267 13 298 132 126 116 146 168 167 159 143 148 144 150
356 346 341 342 339 338 336 333 331 333 334 334 338 342 356 356 254 287 202 176 190 160 155 138 30 131 105 125 190 241 282 269 209 200 136 118 123 115 128 139 146 149 148 154 160
354 349 338 338 334 333 329 325 324 327 327 332 342 346 27 284 278 257 182 176 188 155 142 185 173 171 129 162 191 346 329 355 114 51 135 127 134 100 140 141 150 161 158 165 170
351 346 339 333 329 325 322 319 317 318 323 327 339 9 357 236 172 19 204 203 208 176 180 265 257 115 170 21 109 173 320 308 46 27 142 108 78 136 154 154 160 172 176 180 178
349 343 340 331 328 323 316 312 309 309 314 321 333 43 247 257 264 259 257 254 235 241 244 250 227 172 323 2 5 118 98 16 243 285 74 103 208 153 158 161 170 177 187 191 198
346 344 340 336 328 323 314 311 305 304 307 315 1 83 270 304 236 235 223 219 232 262 265 273 167 207 148 71 5 360 278 333 317 149 228 130 196 185 168 169 176 184 191 196 198
344 342 340 335 332 323 318 315 303 299 199 288 276 359 282 252 201 219 215 224 202 266 342 330 117 194 52 109 223 224 214 200 280 313 84 312 254 183 180 175 181 185 197 199 197
343 339 336 331 331 326 331 356 21 29 195 197 203 245 278 327 266 213 218 225 301 75 241 286 74 241 237 221 239 201 164 173 297 332 310 260 268 184 192 185 191 196 196 197 203
341 338 334 327 323 313 312 135 221 113 299 230 240 246 268 302 328 269 214 151 148 213 238 337 256 246 250 247 253 213 179 209 207 171 180 279 270 222 192 199 195 195 202 199 183
341 338 334 326 316 307 278 248 314 318 295 280 197 207 228 151 213 244 154 178 166 202 220 201 241 264 242 273 223 227 206 245 208 203 225 288 320 312 219 207 201 200 204 192 191
339 338 337 332 321 325 271 323 332 152 46 272 200 251 180 176 280 195 177 145 183 198 222 231 259 252 269 271 214 228 226 196 256 80 230 1 279 315 337 57 158 190 193 205 202
338 336 334 337 308 285 329 327 349 131 359 221 184 178 127 151 174 249 149 84 186 211 126 243 273 263 267 254 217 238 176 185 224 220 54 358 66 284 1 352 12 25 226 201 198
333 331 327 308 297 271 329 333 26 53 263 248 144 154 111 198 249 357 139 97 176 201 253 236 287 219 238 270 262 227 122 23 43 85 7 219 131 304 14 253 292 313 294 231 210
327 321 310 284 243 211 336 19 60 152 318 198 169 146 150 182 251 144 167 166 171 173 259 316 287 279 248 293 333 62 81 334 352 26 225 114 91 230 307 312 288 296 284 286 201
322 316 289 259 261 300 349 55 152 221 254 307 134 125 177 156 225 194 142 206 273 122 128 198 303 208 239 199 202 186 147 155 192 179 256 350 285 251 259 290 310 309 291 78 144
321 314 277 264 231 218 80 125 203 218 302 10 334 133 249 225 162 158 206 197 203 177 176 168 260 280 263 284 147 238 161 186 128 36 109 291 292 301 262 273 349 350 333 3 137
321 317 255 204 164 141 84 233 223 243 20 7 212 80 202 212 156 174 185 207 212 189 161 216 267 267 281 352 347 169 145 65 19 123 156 305 283 248 330 295 348 352 347 309 311
325 349 297 168 139 59 188 233 288 319 18 8 331 284 267 153 205 198 203 247 193 193 186 160 133 269 124 191 220 47 78 57 110 123 160 170 263 232 264 307 319 305 301 288 297
349 344 163 148 84 178 221 214 340 332 12 286 266 218 216 210 308 181 221 217 175 157 154 200 160 236 233 252 180 262 171 143 131 207 123 148 263 257 266 261 274 282 282 263 268
337 270 182 188 146 238 271 268 231 248 249 271 300 88 15 281 16 215 214 236 196 175 171 165 219 249 311 350 337 178 176 124 113 96 187 142 244 216 232 253 242 222 323 329 310
341 38 310 3 165 155 225 263 258 260 250 208 242 307 305 307 165 267 275 303 204 203 195 117 134 168 220 211 179 328 279 150 130 131 175 201 175 254 233 202 209 253 321 316 308
170 259 223 251 278 237 205 291 298 295 249 203 267 204 232 282 349 312 336 326 333 187 166 150 175 166 219 192 171 254 245 203 192 188 163 206 175 210 212 201 187 240 311 320 23
189 23 344 287 274 227 175 230 232 262 222 282 221 267 221 207 173 273 47 20 311 328 108 149 195 148 251 98 181 258 332 298 342 143 24 149 216 146 231 21 240 352 331 304 15
322 327 117 281 333 0 307 268 282 272 252 236 249 272 257 232 175 223 192 195 226 218 223 128 131 101 235 59 87 24 10 80 72 46 66 132 241 146 151 105 96 117 79 38 13